Location: Harrison
(47.4490°N, 116.7734°W)
Time: 21:49:32
(UTC+00:00)

ITUPSAT 1 - Visible Passes

Search period start: 19 September 2024 00:00
Search period end: 29 September 2024 00:00
Orbit: 692 x 705 km, 98.5° (Epoch: 19 September)

Date Brightness Start Highest point End Pass type
(mag) Time Alt. Az. Time Alt. Az. Time Alt. Az.
19 Sep ? 07:04:46 10° N 07:05:26 14° N 07:05:26 14° N visible
20 Sep ? 06:08:28 10° NNE 06:08:36 11° NNE 06:08:36 11° NNE visible
20 Sep ? 07:47:18 10° NNW 07:47:24 10° NNW 07:47:24 10° NNW visible
21 Sep ? 06:50:12 10° N 06:50:35 12° N 06:50:35 12° N visible
22 Sep ? 07:32:27 10° NNW 07:32:33 10° NNW 07:32:33 10° NNW visible
23 Sep ? 06:35:41 10° N 06:35:44 10° N 06:35:44 10° N visible
